Notices

What's New in latest Release from April 7th, 2021:

- Updated Glossary, including Speed of Maximum Gust, and Total Hourly Precipitation

- Updated national and regional climate services offices contacts and prices information

- Addition of station inventory lists for 1981-2010, 1971-2000, and 1961-1990 Normals.

If you haven't already, please take our survey and provide feedback about our website: https://eccc.sondage-survey.ca/f/LanguageSelection.aspx?s=442ca660-fcf1-47c0-95a9-59707d6fd709

Hourly Data Report for March 24, 2020

MIRAMICHI RCS
NEW BRUNSWICK
Current Station Operator: ECCC - MSC

47°00'34.000" N
65°27'54.000" W
33.00 m
8100989
71744
ACQ

Download Data

Hourly Data (March 2020)
Hourly Data Report for March 24, 2020
TIME
LST
Temp Definition
°C
Dew Point Definition
°C
Rel Hum Definition
%
Precip. Amount Definition
mm

Wind Dir Definition
10's deg

Wind Spd Definition
km/h
Visibility Definition
km
Stn Press Definition
kPa
Hmdx Definition


Wind Chill Definition


Weather Definition


00:00 -1.4 -9.0 56 LegendMM 19 10   102.23   -5 LegendNANA
01:00 -1.6 -6.9 67 LegendMM 18 12   102.09   -6 LegendNANA
02:00 -2.6 -5.5 80 LegendMM 19 12   102.00   -7 LegendNANA
03:00 -3.1 -4.7 89 LegendMM 13 2   101.89   -4 LegendNANA
04:00 -3.2 -4.3 92 LegendMM 14 4   101.83   -5 LegendNANA
05:00 -3.4 -4.4 92 LegendMM 9 6   101.74   -6 LegendNANA
06:00 -3.3 -4.3 93 LegendMM 7 5   101.68   -5 LegendNANA
07:00 -3.2 -4.1 94 LegendMM 5 5   101.62   -5 LegendNANA
08:00 -2.9 -3.9 93 LegendMM 3 7   101.57   -6 LegendNANA
09:00 -2.6 -3.5 93 LegendMM 3 7   101.53   -5 LegendNANA
10:00 -1.8 -3.3 89 LegendMM 5 10   101.45   -5 LegendNANA
11:00 -1.1 -2.9 88 LegendMM 6 14   101.38   -6 LegendNANA
12:00 -0.6 -2.5 87 LegendMM 8 14   101.29   -5 LegendNANA
13:00 -0.1 -1.6 89 LegendMM 6 10   101.24   -3 LegendNANA
14:00 0.6 -1.9 84 LegendMM 3 13   101.17     LegendNANA
15:00 1.1 -2.2 78 LegendMM 2 11   101.12     LegendNANA
16:00 0.8 -1.8 82 LegendMM 5 8   101.12     LegendNANA
17:00 1.6 -3.0 71 LegendMM 4 9   101.13     LegendNANA
18:00 -2.8 -4.9 86 LegendMM 9 14   101.17   -8 LegendNANA
19:00 -2.3 -3.7 90 LegendMM 6 3   101.26   -3 LegendNANA
20:00 -6.3 -6.9 95 LegendMM 8 5   101.36   -9 LegendNANA
21:00 -6.4 -6.7 97 LegendMM 33 3   101.43   -8 LegendNANA
22:00 -7.5 -7.9 97 LegendMM 30 2   101.49   -9 LegendNANA
23:00 -6.0 -6.4 97 LegendMM 27 4   101.52   -8 LegendNANA

Notes on Data Quality.

Legend

  • E = Estimated
  • M = Missing
  • NA = Not Available*
  • [empty] = Indicates an unobserved value
Date modified: